Weather History for 68828 - October, 2013

Change the Weather History Date:

Thursday, October 17, 2013

  Actual Average Record
Temperature  
Mean Temperature 55 °F -  
Max Temperature 58 °F 68 °F - ()
Min Temperature 52 °F 52 °F - ()
Degree Days  
Heating Degree Days 10    
Growing Degree Days 5 (Base 50)    
Moisture  
Dew Point 46 °F    
Average Humidity 69    
Maximum Humidity 88    
Minimum Humidity 50    
Precipitation  
Precipitation 0.00 in - - ()
Sea Level Pressure  
Sea Level Pressure 30.26 in    
Wind  
Wind Speed 5 mph ()    
Max Wind Speed 10 mph    
Max Gust Speed 24 mph    
Visibility 7.5 miles    
Events      
T = Trace of Precipitation, MM = Missing Value Source: Averaged Metar Reports

Daily Weather History Graph

Daily Weather History Graph

Search for Another Location

Airport or City:

Trip Planner

Search our weather history database for the weather conditions in past years. The results will help you decide how hot, cold, wet, or windy it might be!

Date:

Astronomy

Oct. 17, 2013 Rise Set
Actual Time 5:46 AM SAST 6:45 PM SAST
Civil Twilight 5:20 AM SAST 7:11 PM SAST
Nautical Twilight 4:50 AM SAST 7:41 PM SAST
Astronomical Twilight 4:19 AM SAST 8:13 PM SAST
Moon 5:25 PM SAST (10/17) 4:35 AM SAST (10/17)
Length of Visible Light 13h 50m
Length of Day
12h 59m
Waxing Gibbous, 97% of the Moon is Illuminated
Oct 17
Waxing Gibbous
Oct 19
Full
Oct 27
Last Quarter
Nov 3
New
Nov 10
First Quarter

Hourly Weather History & Observations

Time (SAST) Temp. Dew Point Humidity Pressure Visibility Wind Dir Wind Speed Gust Speed Precip Events Conditions
12:00 AM 53.6 °F 50.0 °F 88% 30.30 in 6.2 mi NNW 3.5 mph - N/A   Overcast
1:00 AM 53.6 °F 48.2 °F 82% 30.27 in 6.2 mi North 5.8 mph - N/A   Overcast
2:00 AM 53 °F 48 °F 76% 30.27 in 12 mi NNW 4.6 mph - -  
2:00 AM 53.6 °F 48.2 °F 82% 30.27 in 6.2 mi NW 4.6 mph - N/A   Overcast
3:00 AM 53.6 °F 46.4 °F 77% 30.24 in 6.2 mi NW 4.6 mph - N/A   Mostly Cloudy
4:00 AM 53.6 °F 46.4 °F 77% 30.24 in 6.2 mi WNW 3.5 mph - N/A   Mostly Cloudy
5:00 AM 53.6 °F 46.4 °F 77% 30.24 in 6.2 mi West 3.5 mph - N/A   Overcast
6:00 AM 51.8 °F 46.4 °F 82% 30.24 in 6.2 mi West 6.9 mph - N/A   Mostly Cloudy
7:00 AM 53.6 °F 46.4 °F 77% 30.27 in 6.2 mi WNW 6.9 mph - N/A   Mostly Cloudy
8:00 AM 54 °F 46 °F 68% 30.29 in 12 mi WNW 9.2 mph - -   Mostly Cloudy
8:00 AM 53.6 °F 46.4 °F 77% 30.27 in 6.2 mi WNW 8.1 mph - N/A   Mostly Cloudy
9:00 AM 55.4 °F 46.4 °F 72% 30.27 in 6.2 mi West 10.4 mph - N/A   Mostly Cloudy
10:00 AM 57.2 °F 46.4 °F 67% 30.27 in 6.2 mi WSW 6.9 mph - N/A   Mostly Cloudy
11:00 AM 56 °F 46 °F 59% 30.29 in 12 mi SW 8.1 mph - -   Mostly Cloudy
11:00 AM 57.2 °F 46.4 °F 67% 30.27 in 6.2 mi SW 8.1 mph - N/A   Mostly Cloudy
12:00 PM 59.0 °F 46.4 °F 63% 30.27 in 6.2 mi SSW 5.8 mph - N/A   Mostly Cloudy
1:00 PM 57.2 °F 46.4 °F 67% 30.27 in 6.2 mi SSW 9.2 mph - N/A   Mostly Cloudy
2:00 PM 58 °F 45 °F 52% 30.27 in 12 mi SSW 9.2 mph - -   Mostly Cloudy
2:00 PM 57.2 °F 44.6 °F 63% 30.24 in 6.2 mi SSW 9.2 mph 24.2 mph N/A   Mostly Cloudy
3:00 PM 57.2 °F 44.6 °F 63% 30.24 in 6.2 mi SSW 8.1 mph - N/A   Mostly Cloudy
4:00 PM 57.2 °F 44.6 °F 63% 30.24 in 6.2 mi SSW 6.9 mph - N/A   Mostly Cloudy
5:00 PM 57 °F 44 °F 50% 30.27 in 12 mi SW 6.9 mph - -   Mostly Cloudy
5:00 PM 57.2 °F 44.6 °F 63% 30.24 in 6.2 mi SW 6.9 mph - N/A   Mostly Cloudy
6:00 PM 57.2 °F 44.6 °F 63% 30.27 in 6.2 mi WSW 3.5 mph - N/A   Mostly Cloudy
7:00 PM 55.4 °F 44.6 °F 67% 30.27 in 6.2 mi Variable 2.3 mph - N/A   Mostly Cloudy
8:00 PM 56 °F 45 °F 56% 30.29 in 12 mi NNW 2.3 mph - -   Mostly Cloudy
8:00 PM 55.4 °F 44.6 °F 67% 30.27 in 6.2 mi NNW 2.3 mph - N/A   Mostly Cloudy